星链-37802(STARLINK-37802)

导读

STARLINK-37802(NORAD编号69318)是美国太空探索技术公司(SpaceX)星链低轨通信星座的成员卫星,属于2025年后发射的星链V2批次卫星,当前在轨运行状态正常。该卫星运行于约550公里高度的低地球轨道,轨道周期约94.3分钟,核心功能是为全球用户提供低延迟、高速率的卫星互联网接入服务。作为星链全球组网的组成单元,它与其他在轨星链卫星协同,支撑覆盖160余个国家和地区的互联网服务,目前星链全球活跃用户已突破1200万。

基本信息
目录编号:
69318
目录名称:
STARLINK-37802
国际标识:
2026-119Y
轨道中心:
EARTH
卫星名称:
星链-37802
卫星全名:
星链-37802(STARLINK-37802)
卫星状态:
在轨 (已飞行98 天)
发射日期:
2026-05-30 UTC
国别 :
美国 (US)
星等 :
--
轨道信息
数据来源 国际轨道数据
星历时间: 2026-09-05T04:59:35+0800
10小时前
查看轨道信息
半长轴: 6843.69km
偏心率: 0.0001501
轨道倾角: 97.284°
近地点辐角 94.040°
升交点赤经 272.910°
平近点角 266.101°
近地点: 464.525km
远地点: 466.581km
周期: 93.906分钟
每日圈数: 15.334419
详细信息
固有亮度:
5
最大亮度:
2.5
卫星平台:
Starlink V1.0
覆盖范围:
全球
运营商:
太空探索技术公司
运营商所在国:
美国
制造商(研发单位):
太空探索技术公司
制造商所在国:
美国
使用方式:
暂无
卫星简介
Starlink 计划是 SpaceX 推出的全球卫星互联网项目,通过发射低轨道卫星,为全球尤其是偏远地区提供高速、低延迟的互联网服务。自 2019 年起,Starlink 已部署数千颗卫星,旨在缩小全球数字鸿沟,推动互联网普及。该项目还为军事、航空等行业提供通信支持,带来广泛经济效益。
2D轨道图
3D轨道图
轨道高度分析图
轨道倾角分析图
轨道综合分析图
查看轨道综合分析图
交会数据列表
事件ID 空间交会对象 最接近时刻(TCA) 交会距离 交会风险概率(CRP) 交会风险指数(CRI) 操作
CDM_260907-142206-814206-931821
2026-09-07T
14:22:43+0000
0.468 km
远距离
4.711771E-5 中风险 0.68
CDM_260904-194806-187006-931821
OBJECT B (61870)
2026-09-04T
19:48:13+0000
0.961 km
远距离
1.618271E-5 中风险 0.59
CDM_260907-133506-814206-931821
2026-09-07T
13:35:44+0000
0.818 km
远距离
8.046668E-6 低风险 0.53
CDM_260905-232605-835706-931821
2026-09-05T
23:26:35+0000
1.637 km
极远距离
4.664439E-6 低风险 0.48
CDM_260907-150906-814206-931821
2026-09-07T
15:09:42+0000
1.112 km
极远距离
2.856435E-6 低风险 0.44
CDM_260904-220805-846906-931821
2026-09-04T
22:08:42+0000
2.025 km
极远距离
1.917412E-6 低风险 0.41
CDM_260905-080305-401106-931821
2026-09-05T
08:03:14+0000
2.470 km
极远距离
1.784393E-6 低风险 0.4
CDM_260902-125905-719606-931821
2026-09-02T
12:59:21+0000
1.897 km
极远距离
1.777003E-6 低风险 0.4
CDM_260906-102805-328306-931822
2026-09-06T
10:28:58+0000
2.694 km
极远距离
1.541384E-6 低风险 0.39
CDM_260905-071605-401106-931821
2026-09-05T
07:16:14+0000
2.864 km
极远距离
1.41136E-6 低风险 0.38